Weather Roundup
Issued by NWS Springfield, MO

Home | Current Version | Previous Version | Text Only | Print | Product List | Glossary On
Versions: 1 2 3 4 5 6 7 8 9 10 11 12 13 14 15 16 17 18 19 20 21 22 23 24 25 26 27 28 29 30 31 32 33 34 35 36 37 38 39 40 41 42 43 44 45 46 47 48 49 50
000
NZUS99 KSGF 010657
HRRSGF

HOURLY WEATHER
NATIONAL WEATHER SERVICE SPRINGFIELD MO
200 AM CDT TUE SEP 01 2015

......SGF CWA......

CITY           SKY/WX    TMP DP  RH WIND       PRES   REMARKS
SPRINGFIELD    CLEAR     73  68  84 S9        30.06F
JOPLIN         CLEAR     74  67  78 S9        30.04S
WEST PLAINS    CLEAR     71  68  90 S3        30.11S
ROLLA          CLEAR     72  68  87 S8        30.06S

......SURROUNDING SGF CWA......

CITY           SKY/WX    TMP DP  RH WIND       PRES   REMARKS
CHANUTE        CLEAR     73  69  87 S7        30.01S
PARSONS        CLEAR     75  70  84 S5        30.02S
COFFEYVILLE    CLEAR     74  69  85 S7        30.01R
EMPORIA        CLEAR     73  68  84 S15       29.98F

......KANSAS AND MISSOURI......

CITY           SKY/WX    TMP DP  RH WIND       PRES   REMARKS
KANSAS CTY INT CLEAR     74  68  81 S10       29.99S
SEDALIA        CLEAR     75  68  78 S7        30.04S
ST JOSEPH      CLEAR     74  70  87 S7        29.97S
ST LOUIS       CLEAR     78  70  76 S3        30.06S
WICHITA        PTCLDY    74  65  73 S9        29.99R
TOPEKA         CLEAR     76  69  79 S7        29.97S
OLATHE         CLEAR     74  69  85 S8        30.00S

......TENNESSEE......

CITY           SKY/WX    TMP DP  RH WIND       PRES   REMARKS
MEMPHIS        NOT AVBL
NASHVILLE      CLEAR     71  65  81 CALM      30.11S

......ARKANSAS.......

CITY           SKY/WX    TMP DP  RH WIND       PRES   REMARKS
FAYETTEVILLE   CLEAR     67  67 100 SE3       30.08R FOG
FT SMITH       CLEAR     73  68  84 E6        30.04R
LITTLE ROCK    PTCLDY    76  70  82 CALM      30.04S

......OKLAHOMA.......

CITY           SKY/WX    TMP DP  RH WIND       PRES   REMARKS
TULSA          CLEAR     77  71  82 S5        30.00S
PONCA CITY     CLEAR     78  64  61 S8        29.99S
MCALESTER      CLEAR     73  66  78 CALM      30.04S
OKLAHOMA CITY  CLEAR     71  64  78 SE8       30.02S

......IOWA............

CITY           SKY/WX    TMP DP  RH WIND       PRES   REMARKS
DES MOINES     NOT AVBL
QUAD CITIES    CLEAR     75  70  84 S6        30.00S

......ILLINOIS........

CITY           SKY/WX    TMP DP  RH WIND       PRES   REMARKS
QUINCY         NOT AVBL
CHICAGO        PTCLDY    71  68  90 S3        30.03F




USA.gov is the U.S. government's official web portal to all federal, state and local government web resources and services.